Location: ??????????
(54.4061°N, 22.6114°E)
Time: 21:56:56
(UTC+00:00)

STARLINK-43 - Pass Details

Date: 23 October 2019
Orbit: 478 x 481 km, 53.0° (Epoch: 12 November)

Event Time Altitude Azimuth Distance (km) Brightness Sun altitude
Rises 16:00:56 0° 278° (W) 2,537 8.7 -7.4°
Reaches altitude 10° 16:03:08 10° 274° (W) 1,657 7.6 -7.7°
Maximum altitude 16:06:47 54° 197° (SSW) 589 3.9 -8.3°
Drops below altitude 10° 16:10:26 10° 119° (ESE) 1,654 5.6 -8.8°
Enters shadow 16:10:57 - 118° (ESE) 1,859 5.8 -8.9°
